Regional Weather Roundup
Issued by NWS

Home | Current Version | Previous Version | Text Only | Print | Product List | Glossary Off
Versions: 1 2 3 4 5 6 7 8 9 10 11 12 13 14 15 16 17 18 19 20 21 22 23 24 25 26 27 28 29 30 31 32 33 34 35 36 37 38 39 40 41 42 43 44 45 46 47 48 49 50

000
ASUS43 KLOT 261308
RWRIL

ILLINOIS REGIONAL WEATHER ROUNDUP
NATIONAL WEATHER SERVICE CHICAGO/ROMEOVILLE IL
800 AM CDT FRI MAY 26 2017

NOTE: "FAIR" INDICATES FEW OR NO CLOUDS BELOW 12,000 FEET WITH NO
SIGNIFICANT WEATHER AND/OR OBSTRUCTIONS TO VISIBILITY.

* THESE STATIONS ARE NOT UNDER NWS QUALITY CONTROL. THEY ALSO MAY NOT
  REPORT WEATHER SUCH AS PRECIPITATION OR FOG.

ILZ001-002-007-009-015-016-024-261400-
NORTHWEST ILLINOIS

CITY           SKY/WX    TMP DP  RH WIND       PRES   REMARKS
MOLINE         CLOUDY    65  55  70 SE9       29.77F
STERLING*      CLOUDY    62  57  83 SE7       29.83R
SAVANNA*       CLOUDY    64  56  77 SE8       29.81S
$$

ILZ003-004-008-010-011-017-018-261400-
NORTH CENTRAL ILLINOIS

CITY           SKY/WX    TMP DP  RH WIND       PRES   REMARKS
ROCKFORD       PTSUNNY   63  56  78 SE6       29.84S
FREEPORT*      CLOUDY    61  57  87 SE9       29.84R
ROCHELLE*      SUNNY     62  57  83 SE8       29.84S
DE KALB*       MOSUNNY   61  57  88 SE7       29.85S FOG
PERU*          PTSUNNY   59  54  83 SE6       29.85R
$$

ILZ005-006-012>014-019>023-261400-
NORTHEAST ILLINOIS

CITY           SKY/WX    TMP DP  RH WIND       PRES   REMARKS
CHICAGO-OHARE  PTSUNNY   62  54  74 SE7       29.85R
CHICAGO-MIDWAY MOSUNNY   62  54  74 S5        29.86R
AURORA         SUNNY     62  57  83 SE7       29.85S HAZE
LANSING*       SUNNY     58  56  91 CALM      29.88R
JOLIET*        SUNNY     61  58  88 E3        29.86S FOG
WAUKEGAN       SUNNY     58  54  86 NE8       29.85S
DUPAGE AIRPORT SUNNY     60  58  92 S5        29.85R FOG
KANKAKEE*      MOSUNNY   63  63  97 CALM      29.87S
WHEELING       MOSUNNY   60  53  77 SE6       29.86S
MORRIS*        SUNNY     61  57  87 CALM      29.84S
ROMEOVILLE*    SUNNY     59  57  94 S5        29.86S
NORTHERLY ISL    N/A     57  52  83 E3          N/A
$$

LMZ740>746-261400-
SOUTHERN LAKE MICHIGAN

STATION/POSITION SKY/WX   TEMP    WIND        PRES    VSBY  WAVE
                          AIR SEA DIR/SP/G                  HT/PER
                          (F)     (DEG/KT/KT) (MB)    (MI)  (FT/S)
SOUTHERN BUOY              45 45   20/  8/ 10 1011.5F         1/ 4
WILMETTE HARBOR            51 51                N/A           2/ 5
HARRISON CRIB              57     100/  5/  5   N/A
BURNHAM HARBOR             56      90/  3/  3   N/A
CALUMET HARBOR             58      80/  3/  4 1010.9R
BURNS HARBOR               59      CALM  /  1 1011.9S
MICHIGAN CITY              55      30/  2/  3   N/A
MICHIGAN CITY 6N           53 51   70/  2/  4   N/A           2/ 5
ST. JOSEPH                 52 55  250/  4/  4 1012.2          2/ 5
$$

ILZ025>027-034>036-040-047-049-050-058-095>099-261400-
WEST-CENTRAL ILLINOIS

CITY           SKY/WX    TMP DP  RH WIND       PRES   REMARKS
QUINCY         CLOUDY    61  57  87 SE21G28   29.65F
GALESBURG*     CLOUDY    62  55  77 SE8       29.78S
MACOMB*        CLOUDY    60  56  86 SE10      29.80F
JACKSONVILLE*  CLOUDY    62  56  81 SE5       29.83R
PITTSFIELD*    TSTM      61  57  86 SE13      29.78F
$$

ILZ028>032-037-038-041>044-048-051>054-059>061-261400-
CENTRAL ILLINOIS

CITY           SKY/WX    TMP DP  RH WIND       PRES   REMARKS
PONTIAC        MOSUNNY   61  60  96 SE7       29.87R FOG
BLOOMINGTON    MOSUNNY   62  57  83 SE10      29.86R
DECATUR        MOSUNNY   64  57  78 S7        29.86R
PEORIA         MOSUNNY   64  56  75 VRB6      29.83R
LACON*         CLOUDY    62  57  84 SE5       29.82S
LINCOLN*       MOSUNNY   64  58  82 SE7       29.85R
SPRINGFIELD    CLOUDY    65  58  78 SE7       29.84R
TAYLORVILLE    PTSUNNY   63  57  81 S8        29.86R
$$

ILZ033-039-045-046-055>057-062-063-261400-
EAST-CENTRAL ILLINOIS

CITY           SKY/WX    TMP DP  RH WIND       PRES   REMARKS
CHAMPAIGN      CLOUDY    62  57  83 SE9       29.86S
RANTOUL*       CLOUDY    62  58  88 SE6       29.87R
MATTOON        SUNNY     63  59  87 S8        29.87R
PARIS*         CLOUDY    61  58  90 SE8       29.88S
$$

ILZ079-100>102-261400-
SOUTHWEST ILLINOIS

CITY           SKY/WX    TMP DP  RH WIND       PRES   REMARKS
ALTON          CLOUDY    61  57  88 SE12      29.81S
BELLEVILLE     CLOUDY    63  58  83 SE5       29.84R
CAHOKIA*       CLOUDY    65  57  75 SE12      29.78F
SPARTA*        CLOUDY    65  57  75 S6        29.86R
$$

ILZ064>066-069>071-074>076-080>082-084>086-088>090-092>094-261400-
SOUTH-CENTRAL ILLINOIS

CITY           SKY/WX    TMP DP  RH WIND       PRES   REMARKS
CARBONDALE     PTSUNNY   65  59  81 CALM      29.87R
CAIRO*         MOSUNNY   69  58  69 S10       29.85S
EFFINGHAM*     CLOUDY    64  59  85 SE5       29.91R
MARION         PTSUNNY   84  59  42 S6        29.88R HX  84
MT. VERNON       N/A     65  59  81 S5        29.88R
CENTRALIA*     CLOUDY    65  59  80 S8        29.86R
SALEM*         CLOUDY    65  57  73 SE3       29.87R
METROPOLIS*    MOSUNNY   69  58  68 SE5       29.87F
$$

ILZ067-068-072-073-078-083-087-091-261400-
SOUTHEAST ILLINOIS

CITY           SKY/WX    TMP DP  RH WIND       PRES   REMARKS
LAWRENCEVILLE  CLOUDY    63  58  83 SE7       29.90R
FLORA*         CLOUDY    65  58  78 S7        29.89R
FAIRFIELD*     PTSUNNY   64  57  77 S3        29.88R
HARRISBURG*    MOSUNNY   67  59  73 S5        29.88S
ROBINSON*      CLOUDY    62  57  85 SE5       29.89S
CARMI*         MOSUNNY   65  58  78 S7        29.90R
$$

ABBREVIATIONS USED IN REMARKS
   TC - TEMPERATURE IN CELSIUS
  WCI - WIND CHILL INDEX
   HX - HEAT INDEX
  VSB - VISIBILITY
$$




USA.gov is the U.S. government's official web portal to all federal, state and local government web resources and services.